Zurück zum Katalog

STARLINK-37972

AktivKommunikationSSO
NORAD 69708·PAYLOAD·🇺🇸 United States

Gestartet Jun 28, 2026 von Vandenberg Space Force Base

Loading…

Nächste Überflüge (nächste 24 Stunden)

TLE

AktuellSource: CelesTrak SupGP

Epoche: Sep 14, 2026, 21:14 UTC

1 69708C 26147E   26257.88520833  .00003749  00000+0  11639-3 0  2571
2 69708  97.2837 294.2750 0001170  91.9408 126.6171 15.33432198    11

Verfolge STARLINK-37972 in Echtzeit mit AllMySat

Download on the App Store